Asheville, NC

6:03 AM EDT on April 30, 2017 (GMT -0400)
Asheville Regional

Weather History for KAVL - July, 2009

Change the Weather History Date:

Monday, July 20, 2009

  Actual Average Record
Temperature  
Mean Temperature 68 °F 74 °F  
Max Temperature 78 °F 84 °F 97 °F (1932)
Min Temperature 58 °F 64 °F 52 °F (1909)
Degree Days  
Heating Degree Days 0 0  
Month to date heating degree days 0 0  
Since 1 June heating degree days 0 14  
Since 1 July heating degree days 0 0  
Cooling Degree Days 3 9  
Month to date cooling degree days 115 176  
Year to date cooling degree days 378 411  
Since 1 June cooling degree days 324 353  
Growing Degree Days 17 (Base 50)    
Moisture  
Dew Point 56 °F    
Average Humidity 68    
Maximum Humidity 93    
Minimum Humidity 43    
Precipitation  
Precipitation T in 0.14 in 2.28 in (1946)
Month to date precipitation 1.30 2.79  
Year to date precipitation 28.77 25.69  
Snow  
Snow 0.00 in 0.00 in 0.00 in ()
Month to date snowfall 0.0 0.0  
Since 1 June snowfall 0.0 0.0  
Since 1 July snowfall 0.0 0.0  
Snow Depth 0.00 in    
Sea Level Pressure  
Sea Level Pressure 30.06 in    
Wind  
Wind Speed 5 mph (NNW)    
Max Wind Speed 14 mph    
Max Gust Speed 17 mph    
Visibility 10 miles    
Events      
T = Trace of Precipitation, MM = Missing Value Source: NWS Daily Summary

Daily Weather History Graph

Daily Weather History Graph

Search for Another Location

Airport or City:

Trip Planner

Search our weather history database for the weather conditions in past years. The results will help you decide how hot, cold, wet, or windy it might be!

Date:

Astronomy

Jul. 20, 2009 Rise Set
Actual Time 6:29 AM EDT 8:42 PM EDT
Civil Twilight 6:01 AM EDT 9:11 PM EDT
Nautical Twilight 5:25 AM EDT 9:46 PM EDT
Astronomical Twilight 4:47 AM EDT 10:24 PM EDT
Moon 4:30 AM EDT (7/20) 7:43 PM EDT (7/20)
Length of Visible Light 15h 10m
Length of Day
14h 12m
Waning Crescent, 3% of the Moon is Illuminated
Jul 20
Waning Crescent
Jul 21
New
Jul 28
First Quarter
Aug 5
Full
Aug 13
Last Quarter

Hourly Weather History & Observations

Time (EDT) Temp. Dew Point Humidity Pressure Visibility Wind Dir Wind Speed Gust Speed Precip Events Conditions
12:54 AM 62.1 °F 55.9 °F 80% 30.10 in 10.0 mi North 6.9 mph - N/A   Partly Cloudy
1:54 AM 62.1 °F 57.0 °F 84% 30.08 in 10.0 mi NNW 5.8 mph - N/A   Partly Cloudy
2:54 AM 61.0 °F 57.0 °F 87% 30.07 in 10.0 mi Calm Calm - N/A   Mostly Cloudy
3:54 AM 60.1 °F 57.0 °F 90% 30.06 in 10.0 mi NNW 5.8 mph - N/A   Scattered Clouds
4:54 AM 59.0 °F 55.9 °F 90% 30.04 in 10.0 mi NNW 5.8 mph - N/A   Partly Cloudy
5:54 AM 60.1 °F 57.0 °F 90% 30.05 in 10.0 mi NNW 4.6 mph - N/A   Mostly Cloudy
6:54 AM 59.0 °F 57.0 °F 93% 30.06 in 10.0 mi Variable 3.5 mph - N/A   Partly Cloudy
7:54 AM 60.1 °F 57.0 °F 90% 30.07 in 9.0 mi NW 6.9 mph - N/A   Partly Cloudy
8:54 AM 63.0 °F 57.0 °F 81% 30.07 in 10.0 mi NNW 6.9 mph - N/A   Scattered Clouds
9:54 AM 66.0 °F 57.0 °F 73% 30.07 in 10.0 mi North 6.9 mph - N/A   Scattered Clouds
10:54 AM 69.1 °F 59.0 °F 70% 30.07 in 10.0 mi Variable 5.8 mph - N/A   Mostly Cloudy
11:35 AM 71.6 °F 57.2 °F 60% 30.12 in 10.0 mi Calm Calm - N/A   Scattered Clouds
11:54 AM 72.0 °F 55.9 °F 57% 30.05 in 10.0 mi Calm Calm - N/A   Clear
12:54 PM 72.0 °F 53.1 °F 51% 30.05 in 10.0 mi SSW 3.5 mph - N/A   Mostly Cloudy
1:54 PM 75.0 °F 53.1 °F 46% 30.03 in 10.0 mi Variable 4.6 mph - 0.00 in   Mostly Cloudy
2:54 PM 73.9 °F 54.0 °F 50% 30.02 in 10.0 mi ESE 8.1 mph - N/A   Scattered Clouds
3:54 PM 75.9 °F 52.0 °F 43% 30.01 in 10.0 mi South 5.8 mph - N/A   Mostly Cloudy
4:54 PM 73.0 °F 55.9 °F 55% 30.02 in 10.0 mi North 6.9 mph - N/A   Overcast
5:54 PM 72.0 °F 57.9 °F 61% 30.01 in 10.0 mi NNE 3.5 mph - N/A   Mostly Cloudy
6:54 PM 72.0 °F 57.9 °F 61% 30.02 in 10.0 mi Calm Calm - N/A   Mostly Cloudy
7:54 PM 70.0 °F 61.0 °F 73% 30.03 in 10.0 mi NNW 8.1 mph - N/A   Overcast
8:54 PM 68.0 °F 55.9 °F 65% 30.04 in 10.0 mi NNW 10.4 mph - N/A   Overcast
9:54 PM 64.9 °F 55.9 °F 73% 30.06 in 10.0 mi NNW 5.8 mph - N/A   Partly Cloudy
10:54 PM 64.0 °F 57.0 °F 78% 30.08 in 10.0 mi NNW 4.6 mph - N/A   Mostly Cloudy
11:27 PM 64.4 °F 57.2 °F 77% 30.14 in 10.0 mi Calm Calm - N/A   Overcast
11:42 PM 64.4 °F 57.2 °F 77% 30.14 in 10.0 mi Calm Calm - N/A   Mostly Cloudy
11:54 PM 64.0 °F 57.0 °F 78% 30.08 in 10.0 mi NE 3.5 mph - N/A   Mostly Cloudy